星链-37487(STARLINK-37487)

导读

STARLINK-37487(NORAD ID 69840)是SpaceX星链(Starlink)V2 Mini优化版宽带通信卫星,于2026年7月2日随猎鹰9号执行Starlink Group 17-46任务,从加州范登堡太空军基地发射入轨,是该批次部署的24颗星链卫星之一,当前正开展在轨轨道抬升与星座组网,服务全球低轨互联网覆盖,支撑偏远地区、海事及航空场景的高速宽带接入,属于SpaceX第二代星链星座扩容部署的组成部分。

Basic Information
目录编号:
69840
目录名称:
STARLINK-37487
国际标识:
2026-154X
轨道中心:
EARTH
卫星名称:
星链-37487
卫星全名:
星链-37487(STARLINK-37487)
卫星状态:
在轨 (已飞行61 天)
发射日期:
2026-07-05 UTC
国别 :
美国 (US)
星等 :
--
Orbit Information
数据来源 国际轨道数据 AOE轨道数据
星历时间 2026-09-04T10:24:49+0800
7小时前
查看轨道信息
2026-08-30T10:00:00+0800
5天前
查看轨道信息
半长轴 6840.847km 6840.73km
偏心率 0.0000901 0.0001993
轨道倾角 53.160° 53.153°
近地点辐角 86.577° 299.848°
升交点赤经 48.121° 71.550°
平近点角 273.533° 50.598°
近地点 462.093km 461.229km
远地点 463.327km 463.957km
周期 93.848分钟 93.845分钟
每日圈数 15.343978 15.344374
Detailed Information
固有亮度:
5
最大亮度:
2.5
卫星平台:
Starlink V1.0
覆盖范围:
全球
运营商:
太空探索技术公司
运营商所在国:
美国
制造商(研发单位):
太空探索技术公司
制造商所在国:
美国
使用方式:
暂无
Satellite Introduction
Starlink 计划是 SpaceX 推出的全球卫星互联网项目,通过发射低轨道卫星,为全球尤其是偏远地区提供高速、低延迟的互联网服务。自 2019 年起,Starlink 已部署数千颗卫星,旨在缩小全球数字鸿沟,推动互联网普及。该项目还为军事、航空等行业提供通信支持,带来广泛经济效益。
2D Orbit Map
3D Orbit Map
Orbit Altitude Analysis Chart
Orbit Inclination Analysis Chart
Orbit Comprehensive Analysis Chart
View Comprehensive Chart
Conjunction Data List
Event ID Objects TCA Miss Dist (km) Collision Risk Probability Collision Risk Index (CRI) Action
CDM_260904-174204-464106-984021
2026-09-04T
17:42:08+0000
0.775 km
远距离
4.998931E-5 中风险 0.69
CDM_260903-090506-489106-984022
OBJECT R (64891)
2026-09-03T
09:05:36+0000
1.727 km
极远距离
4.278671E-6 低风险 0.48
CDM_260905-131305-926906-984021
2026-09-05T
13:13:13+0000
1.475 km
极远距离
2.153004E-6 低风险 0.42
CDM_260903-095206-489106-984022
OBJECT R (64891)
2026-09-03T
09:52:31+0000
2.294 km
极远距离
2.065652E-6 低风险 0.41
CDM_260904-131805-174306-984021
2026-09-04T
13:18:54+0000
2.747 km
极远距离
1.343745E-6 低风险 0.38
CDM_260905-052604-464106-984021
2026-09-05T
05:26:00+0000
2.750 km
极远距离
1.225699E-6 低风险 0.37
CDM_260905-113905-926906-984021
2026-09-05T
11:39:26+0000
2.390 km
极远距离
6.782453E-7 极低风险 0.32